This is the latest recevied weather packets stored in our database for station/object IONIA-WX. If no packets are shown the sender has not sent any weather packets the latest 10 day(s).
| Time | Temp. | Humidity | Pressure | Rain* | Wind** | Luminosity | Snow |
|---|---|---|---|---|---|---|---|
| 1788306317 | 27.22° C | 70% | 984 hPa | 0 mm | - | - | - |
| 1788305417 | 27.78° C | 72% | 984.2 hPa | 0 mm | - | - | - |
| 1788304516 | 28.33° C | 72% | 984.2 hPa | 0 mm | - | - | - |
| 1788303616 | 28.89° C | 72% | 984.2 hPa | 0 mm | - | - | - |
| 1788302718 | 29.44° C | 64% | 984.7 hPa | 0 mm | - | - | - |
| 1788301817 | 29.44° C | 61% | 984.6 hPa | 0 mm | - | - | - |
| 1788300917 | 29.44° C | 61% | 984.6 hPa | 0 mm | - | - | - |
| 1788300018 | 30° C | 61% | 984.6 hPa | 0 mm | - | - | - |
| 1788299118 | 30° C | 65% | 984.4 hPa | 0 mm | - | - | - |
| 1788298217 | 30° C | 60% | 984.1 hPa | 0 mm | - | - | - |
| 1788297318 | 30.56° C | 60% | 984.2 hPa | 0 mm | - | - | - |
| 1788296417 | 30.56° C | 60% | 984.2 hPa | 0 mm | - | - | - |
| 1788295517 | 30.56° C | 63% | 984.3 hPa | 0 mm | - | - | - |
| 1788294631 | 30.56° C | 66% | 984 hPa | 0 mm | - | - | - |
| 1788293717 | 30.56° C | 66% | 984.1 hPa | 0 mm | - | - | - |
| 1788292818 | 30.56° C | 60% | 984.2 hPa | 0 mm | - | - | - |
| 1788291917 | 30.56° C | 64% | 984 hPa | 0 mm | - | - | - |
| 1788291020 | 30.56° C | 64% | 984 hPa | 0 mm | - | - | - |
| 1788290117 | 31.11° C | 64% | 984.1 hPa | 0 mm | - | - | - |
| 1788289218 | 31.11° C | 64% | 984.1 hPa | 0 mm | - | - | - |
| 1788288317 | 30.56° C | 61% | 985 hPa | 0 mm | - | - | - |
| 1788287417 | 31.11° C | 61% | 985 hPa | 0 mm | - | - | - |
| 1788286517 | 31.11° C | 61% | 985 hPa | 0 mm | - | - | - |
| 1788285621 | 30.56° C | 61% | 985 hPa | 0 mm | - | - | - |
| 1788284717 | 30.56° C | 69% | 985.2 hPa | 0 mm | - | - | - |
* Rain latest hour (hover to see other rain measurements)
** Current wind speed in m/s (hover to see current wind gust speed)